Time,TemperatureF,DewpointF,PressureIn,WindDirection,WindDirectionDegrees,WindSpeedMPH,WindSpeedGustMPH,Humidity,HourlyPrecipIn,Conditions,Clouds,dailyrainin,SoftwareType,DateUTC
2013-02-20 00:00:00,10.2,-19.4,29.15,NW,321,5.8,5.8,24,0.00,,,0.00,VWS V14.01,2013-02-20 06:00:00,
2013-02-20 00:05:00,10.2,-19.4,29.15,NNW,335,4.0,8.7,24,0.00,,,0.00,VWS V14.01,2013-02-20 06:05:00,
2013-02-20 00:10:00,10.0,-19.5,29.15,NW,315,6.7,6.7,24,0.00,,,0.00,VWS V14.01,2013-02-20 06:10:00,
2013-02-20 00:15:00,9.9,-19.7,29.15,NW,321,8.1,8.1,24,0.00,,,0.00,VWS V14.01,2013-02-20 06:15:00,
2013-02-20 00:20:00,9.7,-19.9,29.15,NW,326,3.6,3.6,24,0.00,,,0.00,VWS V14.01,2013-02-20 06:20:00,
2013-02-20 00:25:00,9.5,-20.0,29.15,NNW,327,5.4,5.4,24,0.00,,,0.00,VWS V14.01,2013-02-20 06:25:00,
2013-02-20 00:30:00,9.5,-20.0,29.15,NNW,337,7.6,7.6,24,0.00,,,0.00,VWS V14.01,2013-02-20 06:30:00,
2013-02-20 00:35:00,9.3,-20.2,29.15,NW,324,4.0,4.0,24,0.00,,,0.00,VWS V14.01,2013-02-20 06:35:00,
2013-02-20 00:40:00,9.3,-20.2,29.15,WNW,303,5.4,5.4,24,0.00,,,0.00,VWS V14.01,2013-02-20 06:40:00,
2013-02-20 00:45:00,9.3,-20.2,29.15,North,353,4.0,4.0,24,0.00,,,0.00,VWS V14.01,2013-02-20 06:45:00,
2013-02-20 00:50:00,9.0,-20.5,29.15,NNW,334,3.6,3.6,24,0.00,,,0.00,VWS V14.01,2013-02-20 06:50:00,
2013-02-20 00:55:00,8.8,-20.6,29.15,NNW,338,4.0,4.0,24,0.00,,,0.00,VWS V14.01,2013-02-20 06:55:00,
2013-02-20 01:00:00,8.8,-20.6,29.15,NNW,328,5.4,6.3,24,0.00,,,0.00,VWS V14.01,2013-02-20 07:00:00,
2013-02-20 01:05:00,8.8,-20.6,29.15,NNW,328,4.0,4.0,24,0.00,,,0.00,VWS V14.01,2013-02-20 07:05:00,
2013-02-20 01:10:00,8.8,-20.6,29.18,NW,324,5.8,5.8,24,0.00,,,0.00,VWS V14.01,2013-02-20 07:10:00,
2013-02-20 01:15:00,8.8,-20.6,29.18,NNW,331,6.3,6.7,24,0.00,,,0.00,VWS V14.01,2013-02-20 07:15:00,
2013-02-20 01:20:00,8.8,-20.6,29.18,NW,319,5.8,5.8,24,0.00,,,0.00,VWS V14.01,2013-02-20 07:20:00,
2013-02-20 01:25:00,8.6,-20.8,29.18,NNW,340,5.4,5.4,24,0.00,,,0.00,VWS V14.01,2013-02-20 07:25:00,
2013-02-20 01:30:00,8.6,-20.8,29.18,NNW,341,5.4,5.4,24,0.00,,,0.00,VWS V14.01,2013-02-20 07:30:00,
2013-02-20 01:35:00,8.4,-20.9,29.18,North,353,4.0,4.9,24,0.00,,,0.00,VWS V14.01,2013-02-20 07:35:00,
2013-02-20 01:40:00,8.4,-20.9,29.18,NNW,331,4.5,4.5,24,0.00,,,0.00,VWS V14.01,2013-02-20 07:40:00,
2013-02-20 01:45:00,8.4,-20.9,29.18,NNW,346,3.6,3.6,24,0.00,,,0.00,VWS V14.01,2013-02-20 07:45:00,
2013-02-20 01:50:00,8.4,-20.9,29.18,NNW,345,6.3,6.3,24,0.00,,,0.00,VWS V14.01,2013-02-20 07:50:00,
2013-02-20 01:55:00,8.4,-20.9,29.18,NW,316,5.8,5.8,24,0.00,,,0.00,VWS V14.01,2013-02-20 07:55:00,
2013-02-20 02:00:00,8.2,-21.1,29.18,North,3,6.3,6.3,24,0.00,,,0.00,VWS V14.01,2013-02-20 08:00:00,
2013-02-20 02:05:00,8.1,-21.2,29.18,North,353,4.9,4.9,24,0.00,,,0.00,VWS V14.01,2013-02-20 08:05:00,
2013-02-20 02:10:00,8.1,-21.2,29.18,North,8,5.8,5.8,24,0.00,,,0.00,VWS V14.01,2013-02-20 08:10:00,
2013-02-20 02:15:00,8.1,-21.2,29.18,North,8,5.8,5.8,24,0.00,,,0.00,VWS V14.01,2013-02-20 08:15:00,
2013-02-20 02:20:00,8.1,-21.2,29.18,NW,322,8.3,8.3,24,0.00,,,0.00,VWS V14.01,2013-02-20 08:20:00,
2013-02-20 02:25:00,8.1,-21.2,29.18,NNW,345,5.4,5.4,24,0.00,,,0.00,VWS V14.01,2013-02-20 08:25:00,
2013-02-20 02:30:00,7.9,-21.4,29.18,NNW,342,5.4,5.4,24,0.00,,,0.00,VWS V14.01,2013-02-20 08:30:00,
2013-02-20 02:35:00,7.9,-21.4,29.18,NNW,341,3.1,3.1,24,0.00,,,0.00,VWS V14.01,2013-02-20 08:35:00,
2013-02-20 02:40:00,7.7,-21.6,29.18,NNW,340,6.3,6.3,24,0.00,,,0.00,VWS V14.01,2013-02-20 08:40:00,
2013-02-20 02:45:00,7.5,-21.7,29.18,NNW,344,5.8,5.8,24,0.00,,,0.00,VWS V14.01,2013-02-20 08:45:00,
2013-02-20 02:50:00,7.5,-21.7,29.18,NNW,343,4.0,4.0,24,0.00,,,0.00,VWS V14.01,2013-02-20 08:50:00,
2013-02-20 02:55:00,7.3,-21.9,29.18,NNW,333,5.8,5.8,24,0.00,,,0.00,VWS V14.01,2013-02-20 08:55:00,
2013-02-20 03:00:00,7.3,-21.9,29.18,NNW,335,4.9,9.2,24,0.00,,,0.00,VWS V14.01,2013-02-20 09:00:00,
2013-02-20 03:05:00,7.3,-21.9,29.18,NNW,344,3.6,3.6,24,0.00,,,0.00,VWS V14.01,2013-02-20 09:05:00,
2013-02-20 03:10:00,7.2,-22.0,29.18,NNW,335,5.4,5.4,24,0.00,,,0.00,VWS V14.01,2013-02-20 09:10:00,
2013-02-20 03:15:00,7.2,-22.0,29.15,NNW,334,5.8,5.8,24,0.00,,,0.00,VWS V14.01,2013-02-20 09:15:00,
2013-02-20 03:20:00,7.0,-22.2,29.15,North,349,4.0,4.0,24,0.00,,,0.00,VWS V14.01,2013-02-20 09:20:00,
2013-02-20 03:25:00,7.0,-22.2,29.15,North,5,11.0,11.0,24,0.00,,,0.00,VWS V14.01,2013-02-20 09:25:00,
2013-02-20 03:30:00,7.0,-22.2,29.15,North,0,8.7,8.7,24,0.00,,,0.00,VWS V14.01,2013-02-20 09:30:00,
2013-02-20 03:35:00,7.0,-22.2,29.15,NNE,16,5.4,5.4,24,0.00,,,0.00,VWS V14.01,2013-02-20 09:35:00,
2013-02-20 03:40:00,6.8,-22.3,29.15,NNE,17,5.4,5.4,24,0.00,,,0.00,VWS V14.01,2013-02-20 09:40:00,
2013-02-20 03:45:00,6.8,-22.3,29.15,NNW,338,6.3,6.3,24,0.00,,,0.00,VWS V14.01,2013-02-20 09:45:00,
2013-02-20 03:50:00,6.8,-22.3,29.15,North,7,6.3,6.3,24,0.00,,,0.00,VWS V14.01,2013-02-20 09:50:00,
2013-02-20 03:55:00,6.8,-22.3,29.15,North,0,5.4,5.4,24,0.00,,,0.00,VWS V14.01,2013-02-20 09:55:00,
2013-02-20 04:00:00,6.8,-22.3,29.15,North,8,6.3,6.3,24,0.00,,,0.00,VWS V14.01,2013-02-20 10:00:00,
2013-02-20 04:05:00,6.6,-22.5,29.15,North,3,5.4,5.4,24,0.00,,,0.00,VWS V14.01,2013-02-20 10:05:00,
2013-02-20 04:10:00,6.6,-22.5,29.15,North,9,5.8,5.8,24,0.00,,,0.00,VWS V14.01,2013-02-20 10:10:00,
2013-02-20 04:15:00,6.4,-22.6,29.15,North,9,5.8,5.8,24,0.00,,,0.00,VWS V14.01,2013-02-20 10:15:00,
2013-02-20 04:20:00,6.6,-22.5,29.15,North,0,5.8,5.8,24,0.00,,,0.00,VWS V14.01,2013-02-20 10:20:00,
2013-02-20 04:25:00,6.6,-22.5,29.12,NNE,20,8.3,8.3,24,0.00,,,0.00,VWS V14.01,2013-02-20 10:25:00,
2013-02-20 04:30:00,6.8,-22.3,29.12,NNE,15,8.3,8.3,24,0.00,,,0.00,VWS V14.01,2013-02-20 10:30:00,
2013-02-20 04:35:00,6.8,-22.3,29.12,North,6,8.3,8.3,24,0.00,,,0.00,VWS V14.01,2013-02-20 10:35:00,
2013-02-20 04:40:00,6.8,-22.3,29.15,NNE,15,4.0,4.0,24,0.00,,,0.00,VWS V14.01,2013-02-20 10:40:00,
2013-02-20 04:45:00,6.8,-22.3,29.15,NNE,30,6.3,6.3,24,0.00,,,0.00,VWS V14.01,2013-02-20 10:45:00,
2013-02-20 04:50:00,6.8,-22.3,29.15,NNE,20,8.7,12.8,24,0.00,,,0.00,VWS V14.01,2013-02-20 10:50:00,
2013-02-20 04:55:00,6.6,-22.5,29.15,NNE,28,9.2,9.2,24,0.00,,,0.00,VWS V14.01,2013-02-20 10:55:00,
2013-02-20 05:00:00,6.4,-22.6,29.12,NNE,18,6.3,6.3,24,0.00,,,0.00,VWS V14.01,2013-02-20 11:00:00,
2013-02-20 05:05:00,6.4,-22.6,29.12,NNE,18,6.3,6.3,24,0.00,,,0.00,VWS V14.01,2013-02-20 11:05:00,
2013-02-20 05:10:00,6.4,-22.6,29.12,NE,42,6.3,6.3,24,0.00,,,0.00,VWS V14.01,2013-02-20 11:10:00,
2013-02-20 05:15:00,6.3,-22.8,29.12,NNE,28,4.0,4.0,24,0.00,,,0.00,VWS V14.01,2013-02-20 11:15:00,
2013-02-20 05:20:00,6.3,-22.8,29.12,NNE,23,5.8,5.8,24,0.00,,,0.00,VWS V14.01,2013-02-20 11:20:00,
2013-02-20 05:25:00,6.3,-22.8,29.12,NE,43,4.9,4.9,24,0.00,,,0.00,VWS V14.01,2013-02-20 11:25:00,
2013-02-20 05:30:00,6.3,-22.8,29.12,NE,52,8.1,8.1,24,0.00,,,0.00,VWS V14.01,2013-02-20 11:30:00,
2013-02-20 05:35:00,6.3,-22.8,29.12,NE,35,8.1,8.1,24,0.00,,,0.00,VWS V14.01,2013-02-20 11:35:00,
2013-02-20 05:40:00,6.3,-22.8,29.12,NNE,29,6.3,6.3,24,0.00,,,0.00,VWS V14.01,2013-02-20 11:40:00,
2013-02-20 05:45:00,6.3,-22.8,29.12,NNE,23,4.9,4.9,24,0.00,,,0.00,VWS V14.01,2013-02-20 11:45:00,
2013-02-20 05:50:00,6.1,-23.0,29.12,NNE,23,4.9,4.9,24,0.00,,,0.00,VWS V14.01,2013-02-20 11:50:00,
2013-02-20 05:55:00,6.1,-23.0,29.12,NNE,25,5.8,5.8,24,0.00,,,0.00,VWS V14.01,2013-02-20 11:55:00,
2013-02-20 06:00:00,6.1,-23.0,29.12,NE,52,7.2,7.2,24,0.00,,,0.00,VWS V14.01,2013-02-20 12:00:00,
2013-02-20 06:05:00,6.1,-23.0,29.12,NE,54,7.2,7.2,24,0.00,,,0.00,VWS V14.01,2013-02-20 12:05:00,
2013-02-20 06:10:00,6.1,-23.0,29.12,NE,55,4.0,7.6,24,0.00,,,0.00,VWS V14.01,2013-02-20 12:10:00,
2013-02-20 06:15:00,6.1,-23.0,29.12,NE,55,4.0,4.0,24,0.00,,,0.00,VWS V14.01,2013-02-20 12:15:00,
2013-02-20 06:20:00,5.9,-23.1,29.12,NE,51,4.0,4.0,24,0.00,,,0.00,VWS V14.01,2013-02-20 12:20:00,
2013-02-20 06:25:00,5.7,-23.3,29.12,NE,51,2.7,2.7,24,0.00,,,0.00,VWS V14.01,2013-02-20 12:25:00,
2013-02-20 06:30:00,5.7,-23.3,29.12,NE,35,7.6,7.6,24,0.00,,,0.00,VWS V14.01,2013-02-20 12:30:00,
2013-02-20 06:35:00,5.7,-23.3,29.12,NE,41,6.3,6.3,24,0.00,,,0.00,VWS V14.01,2013-02-20 12:35:00,
2013-02-20 06:40:00,5.7,-23.3,29.12,NE,45,8.3,8.3,24,0.00,,,0.00,VWS V14.01,2013-02-20 12:40:00,
2013-02-20 06:45:00,5.7,-23.3,29.12,NE,38,3.1,5.8,24,0.00,,,0.00,VWS V14.01,2013-02-20 12:45:00,
2013-02-20 06:50:00,5.5,-23.4,29.12,ENE,62,8.1,8.1,24,0.00,,,0.00,VWS V14.01,2013-02-20 12:50:00,
2013-02-20 06:55:00,5.5,-23.4,29.12,NE,53,5.4,5.4,24,0.00,,,0.00,VWS V14.01,2013-02-20 12:55:00,
2013-02-20 07:00:00,5.5,-23.4,29.12,NE,54,3.1,3.1,24,0.00,,,0.00,VWS V14.01,2013-02-20 13:00:00,
2013-02-20 07:05:00,5.5,-23.4,29.12,NE,52,2.7,2.7,24,0.00,,,0.00,VWS V14.01,2013-02-20 13:05:00,
2013-02-20 07:10:00,5.5,-23.4,29.12,NE,52,2.7,2.7,24,0.00,,,0.00,VWS V14.01,2013-02-20 13:10:00,
2013-02-20 07:15:00,5.5,-23.4,29.12,ENE,57,6.3,6.3,24,0.00,,,0.00,VWS V14.01,2013-02-20 13:15:00,
2013-02-20 07:20:00,5.5,-23.4,29.12,ENE,59,6.3,6.3,24,0.00,,,0.00,VWS V14.01,2013-02-20 13:20:00,
2013-02-20 07:25:00,5.5,-23.4,29.12,NE,54,4.9,4.9,24,0.00,,,0.00,VWS V14.01,2013-02-20 13:25:00,
2013-02-20 07:30:00,5.5,-23.4,29.12,ENE,70,6.3,6.3,24,0.00,,,0.00,VWS V14.01,2013-02-20 13:30:00,
2013-02-20 07:35:00,5.5,-23.4,29.12,ENE,61,5.8,5.8,24,0.00,,,0.00,VWS V14.01,2013-02-20 13:35:00,
2013-02-20 07:40:00,5.5,-23.4,29.12,NNE,22,5.8,5.8,24,0.00,,,0.00,VWS V14.01,2013-02-20 13:40:00,
2013-02-20 07:45:00,5.5,-23.4,29.12,NNE,23,6.3,6.3,24,0.00,,,0.00,VWS V14.01,2013-02-20 13:45:00,
2013-02-20 07:50:00,5.5,-23.4,29.12,NNE,23,6.3,6.3,24,0.00,,,0.00,VWS V14.01,2013-02-20 13:50:00,
2013-02-20 07:54:00,5.5,-23.4,29.12,ENE,58,6.3,7.6,24,0.00,,,0.00,VWS V14.01,2013-02-20 13:54:00,
2013-02-20 07:59:00,5.5,-23.4,29.12,NE,56,7.6,7.6,24,0.00,,,0.00,VWS V14.01,2013-02-20 13:59:00,
2013-02-20 08:04:00,5.5,-23.4,29.12,NE,47,7.6,7.6,24,0.00,,,0.00,VWS V14.01,2013-02-20 14:04:00,
2013-02-20 08:09:00,9.0,-20.5,29.12,NE,47,7.6,7.6,24,0.00,,,0.00,VWS V14.01,2013-02-20 14:09:00,
2013-02-20 08:14:00,9.0,-20.5,29.15,ENE,76,6.3,6.3,24,0.00,,,0.00,VWS V14.01,2013-02-20 14:14:00,
2013-02-20 08:19:00,9.9,-19.7,29.15,ENE,62,6.3,6.3,24,0.00,,,0.00,VWS V14.01,2013-02-20 14:19:00,
2013-02-20 08:24:00,10.8,-18.9,29.15,East,85,5.8,5.8,24,0.00,,,0.00,VWS V14.01,2013-02-20 14:24:00,
2013-02-20 08:29:00,10.8,-18.9,29.15,ESE,107,8.7,8.7,24,0.00,,,0.00,VWS V14.01,2013-02-20 14:29:00,
2013-02-20 08:34:00,11.1,-18.6,29.15,ESE,118,12.8,12.8,24,0.00,,,0.00,VWS V14.01,2013-02-20 14:34:00,
2013-02-20 08:39:00,11.7,-18.1,29.15,East,91,5.8,5.8,24,0.00,,,0.00,VWS V14.01,2013-02-20 14:39:00,
2013-02-20 08:44:00,11.7,-18.1,29.15,ESE,116,8.3,8.3,24,0.00,,,0.00,VWS V14.01,2013-02-20 14:44:00,
2013-02-20 08:49:00,12.0,-17.8,29.15,East,96,6.3,6.3,24,0.00,,,0.00,VWS V14.01,2013-02-20 14:49:00,
2013-02-20 08:54:00,12.0,-17.8,29.15,ENE,59,8.3,8.3,24,0.00,,,0.00,VWS V14.01,2013-02-20 14:54:00,
2013-02-20 08:59:00,12.6,-17.4,29.15,East,82,5.8,5.8,24,0.00,,,0.00,VWS V14.01,2013-02-20 14:59:00,
2013-02-20 09:04:00,12.7,-17.2,29.15,ENE,60,8.7,8.7,24,0.00,,,0.00,VWS V14.01,2013-02-20 15:04:00,
2013-02-20 09:09:00,12.7,-17.2,29.15,ENE,58,8.3,8.3,24,0.00,,,0.00,VWS V14.01,2013-02-20 15:09:00,
2013-02-20 09:14:00,13.6,-16.4,29.15,ESE,103,8.1,8.1,24,0.00,,,0.00,VWS V14.01,2013-02-20 15:14:00,
2013-02-20 09:19:00,13.6,-16.4,29.15,ESE,113,8.7,8.7,24,0.00,,,0.00,VWS V14.01,2013-02-20 15:19:00,
2013-02-20 09:24:00,15.1,-13.6,29.15,ESE,106,9.2,9.2,26,0.00,,,0.00,VWS V14.01,2013-02-20 15:24:00,
2013-02-20 09:29:00,15.1,-13.6,29.15,East,101,7.2,7.2,26,0.00,,,0.00,VWS V14.01,2013-02-20 15:29:00,
2013-02-20 09:34:00,15.8,-13.0,29.15,ESE,109,6.7,6.7,26,0.00,,,0.00,VWS V14.01,2013-02-20 15:34:00,
2013-02-20 09:39:00,17.1,-11.9,29.15,ESE,117,8.1,8.1,26,0.00,,,0.00,VWS V14.01,2013-02-20 15:39:00,
2013-02-20 09:44:00,17.1,-11.9,29.15,ESE,103,8.3,8.3,26,0.00,,,0.00,VWS V14.01,2013-02-20 15:44:00,
2013-02-20 09:49:00,18.0,-11.9,29.15,ESE,120,10.5,10.5,25,0.00,,,0.00,VWS V14.01,2013-02-20 15:49:00,
2013-02-20 09:54:00,18.0,-11.9,29.15,ESE,114,8.1,8.3,25,0.00,,,0.00,VWS V14.01,2013-02-20 15:54:00,
2013-02-20 09:59:00,18.0,-11.9,29.15,ESE,116,8.1,8.1,25,0.00,,,0.00,VWS V14.01,2013-02-20 15:59:00,
2013-02-20 10:04:00,19.0,-11.0,29.15,ESE,119,8.1,8.1,25,0.00,,,0.00,VWS V14.01,2013-02-20 16:04:00,
2013-02-20 10:09:00,19.0,-11.0,29.15,ENE,69,6.7,6.7,25,0.00,,,0.00,VWS V14.01,2013-02-20 16:09:00,
2013-02-20 10:14:00,19.2,-10.8,29.15,East,95,3.1,3.1,25,0.00,,,0.00,VWS V14.01,2013-02-20 16:14:00,
2013-02-20 10:19:00,19.2,-10.8,29.15,ESE,105,8.1,8.1,25,0.00,,,0.00,VWS V14.01,2013-02-20 16:19:00,
2013-02-20 10:24:00,19.2,-10.8,29.15,ENE,75,6.3,6.3,25,0.00,,,0.00,VWS V14.01,2013-02-20 16:24:00,
2013-02-20 10:29:00,19.2,-10.8,29.15,ENE,69,6.3,6.3,25,0.00,,,0.00,VWS V14.01,2013-02-20 16:29:00,
2013-02-20 10:34:00,21.6,-8.8,29.15,ESE,114,8.3,8.3,25,0.00,,,0.00,VWS V14.01,2013-02-20 16:34:00,
2013-02-20 10:39:00,21.9,-8.5,29.15,East,89,8.1,8.1,25,0.00,,,0.00,VWS V14.01,2013-02-20 16:39:00,
2013-02-20 10:44:00,21.9,-8.5,29.15,ESE,112,8.3,8.3,25,0.00,,,0.00,VWS V14.01,2013-02-20 16:44:00,
2013-02-20 10:49:00,21.7,-8.6,29.15,East,86,10.1,10.1,25,0.00,,,0.00,VWS V14.01,2013-02-20 16:49:00,
2013-02-20 10:54:00,21.6,-11.4,29.15,East,86,5.4,5.4,22,0.00,,,0.00,VWS V14.01,2013-02-20 16:54:00,
2013-02-20 10:59:00,21.4,-11.5,29.15,East,89,8.3,8.3,22,0.00,,,0.00,VWS V14.01,2013-02-20 16:59:00,
2013-02-20 11:04:00,21.4,-11.5,29.15,East,82,7.2,7.2,22,0.00,,,0.00,VWS V14.01,2013-02-20 17:04:00,
2013-02-20 11:09:00,21.0,-11.9,29.15,ENE,66,8.3,8.3,22,0.00,,,0.00,VWS V14.01,2013-02-20 17:09:00,
2013-02-20 11:14:00,20.8,-12.0,29.15,ESE,115,8.1,8.1,22,0.00,,,0.00,VWS V14.01,2013-02-20 17:14:00,
2013-02-20 11:19:00,20.8,-12.0,29.15,ENE,71,7.6,7.6,22,0.00,,,0.00,VWS V14.01,2013-02-20 17:19:00,
2013-02-20 11:24:00,21.2,-11.7,29.15,East,83,9.6,11.0,22,0.00,,,0.00,VWS V14.01,2013-02-20 17:24:00,
2013-02-20 11:29:00,21.2,-11.7,29.15,ESE,116,8.7,8.7,22,0.00,,,0.00,VWS V14.01,2013-02-20 17:29:00,
2013-02-20 11:34:00,21.7,-11.2,29.15,ENE,65,8.7,8.7,22,0.00,,,0.00,VWS V14.01,2013-02-20 17:34:00,
2013-02-20 11:39:00,21.7,-11.2,29.15,East,89,6.3,6.3,22,0.00,,,0.00,VWS V14.01,2013-02-20 17:39:00,
2013-02-20 11:44:00,23.2,-8.2,29.15,ENE,68,6.3,6.3,24,0.00,,,0.00,VWS V14.01,2013-02-20 17:44:00,
2013-02-20 11:49:00,23.4,-8.1,29.15,ENE,70,8.1,8.1,24,0.00,,,0.00,VWS V14.01,2013-02-20 17:49:00,
2013-02-20 11:54:00,23.5,-7.9,29.15,East,89,5.4,6.3,24,0.00,,,0.00,VWS V14.01,2013-02-20 17:54:00,
2013-02-20 11:59:00,23.9,-7.6,29.15,ESE,103,8.7,8.7,24,0.00,,,0.00,VWS V14.01,2013-02-20 17:59:00,
2013-02-20 12:04:00,23.9,-7.6,29.15,SE,130,6.3,6.3,24,0.00,,,0.00,VWS V14.01,2013-02-20 18:04:00,
2013-02-20 12:09:00,24.1,-7.5,29.15,ESE,103,8.1,8.1,24,0.00,,,0.00,VWS V14.01,2013-02-20 18:09:00,
2013-02-20 12:14:00,24.4,-7.2,29.15,East,91,2.7,2.7,24,0.00,,,0.00,VWS V14.01,2013-02-20 18:14:00,
2013-02-20 12:19:00,24.4,-7.2,29.15,SE,125,7.6,7.6,24,0.00,,,0.00,VWS V14.01,2013-02-20 18:19:00,
2013-02-20 12:24:00,24.4,-7.2,29.15,SE,142,4.5,4.5,24,0.00,,,0.00,VWS V14.01,2013-02-20 18:24:00,
2013-02-20 12:29:00,24.4,-7.2,29.15,SE,126,11.9,11.9,24,0.00,,,0.00,VWS V14.01,2013-02-20 18:29:00,
2013-02-20 12:34:00,24.4,-7.2,29.15,ESE,122,6.3,6.3,24,0.00,,,0.00,VWS V14.01,2013-02-20 18:34:00,
2013-02-20 12:39:00,24.4,-7.2,29.15,SE,143,3.1,3.1,24,0.00,,,0.00,VWS V14.01,2013-02-20 18:39:00,
2013-02-20 12:44:00,24.4,-7.2,29.12,East,93,7.6,7.6,24,0.00,,,0.00,VWS V14.01,2013-02-20 18:44:00,
2013-02-20 12:49:00,25.5,-6.2,29.12,ESE,122,6.3,6.3,24,0.00,,,0.00,VWS V14.01,2013-02-20 18:49:00,
2013-02-20 12:54:00,26.2,-5.6,29.12,ESE,108,7.6,7.6,24,0.00,,,0.00,VWS V14.01,2013-02-20 18:54:00,
2013-02-20 12:59:00,26.2,-5.6,29.09,East,87,4.0,4.0,24,0.00,,,0.00,VWS V14.01,2013-02-20 18:59:00,
2013-02-20 13:04:00,26.2,-5.6,29.09,ESE,114,9.6,9.6,24,0.00,,,0.00,VWS V14.01,2013-02-20 19:04:00,
2013-02-20 13:09:00,27.3,-5.6,29.09,ESE,117,7.6,7.6,23,0.00,,,0.00,VWS V14.01,2013-02-20 19:09:00,
2013-02-20 13:14:00,27.3,-5.6,29.09,ENE,70,8.3,8.3,23,0.00,,,0.00,VWS V14.01,2013-02-20 19:14:00,
2013-02-20 13:19:00,27.3,-5.6,29.09,East,101,4.0,4.0,23,0.00,,,0.00,VWS V14.01,2013-02-20 19:19:00,
2013-02-20 13:24:00,27.3,-5.6,29.09,East,101,4.0,4.0,23,0.00,,,0.00,VWS V14.01,2013-02-20 19:24:00,
2013-02-20 13:29:00,27.3,-5.6,29.09,East,95,5.4,5.4,23,0.00,,,0.00,VWS V14.01,2013-02-20 19:29:00,
2013-02-20 13:34:00,27.3,-5.6,29.09,East,90,4.0,4.0,23,0.00,,,0.00,VWS V14.01,2013-02-20 19:34:00,
2013-02-20 13:39:00,27.3,-5.6,29.06,ESE,118,5.4,5.4,23,0.00,,,0.00,VWS V14.01,2013-02-20 19:39:00,
2013-02-20 13:44:00,27.3,-5.6,29.06,ENE,73,8.3,8.3,23,0.00,,,0.00,VWS V14.01,2013-02-20 19:44:00,
2013-02-20 13:49:00,27.3,-5.6,29.06,East,87,8.3,8.3,23,0.00,,,0.00,VWS V14.01,2013-02-20 19:49:00,
2013-02-20 13:54:00,27.3,-5.6,29.06,ENE,77,7.6,8.3,23,0.00,,,0.00,VWS V14.01,2013-02-20 19:54:00,
2013-02-20 13:59:00,27.3,-5.6,29.06,ENE,68,9.6,9.6,23,0.00,,,0.00,VWS V14.01,2013-02-20 19:59:00,
2013-02-20 14:04:00,27.3,-5.6,29.06,ENE,60,11.0,11.0,23,0.00,,,0.00,VWS V14.01,2013-02-20 20:04:00,
2013-02-20 14:09:00,25.3,-6.4,29.06,ENE,61,10.5,10.5,24,0.00,,,0.00,VWS V14.01,2013-02-20 20:09:00,
2013-02-20 14:14:00,25.3,-6.4,29.03,NE,38,8.3,8.7,24,0.00,,,0.00,VWS V14.01,2013-02-20 20:14:00,
2013-02-20 14:19:00,25.3,-6.4,29.03,ENE,59,6.3,6.3,24,0.00,,,0.00,VWS V14.01,2013-02-20 20:19:00,
2013-02-20 14:24:00,25.7,-6.1,29.03,ENE,57,8.1,8.1,24,0.00,,,0.00,VWS V14.01,2013-02-20 20:24:00,
2013-02-20 14:29:00,25.7,-6.1,29.03,ENE,65,8.3,8.3,24,0.00,,,0.00,VWS V14.01,2013-02-20 20:29:00,
2013-02-20 14:34:00,26.1,-5.8,29.03,ESE,108,10.1,10.1,24,0.00,,,0.00,VWS V14.01,2013-02-20 20:34:00,
2013-02-20 14:39:00,26.1,-5.8,29.03,ENE,64,6.3,6.3,24,0.00,,,0.00,VWS V14.01,2013-02-20 20:39:00,
2013-02-20 14:44:00,26.2,-5.6,29.03,ENE,63,5.4,5.8,24,0.00,,,0.00,VWS V14.01,2013-02-20 20:44:00,
2013-02-20 14:49:00,26.2,-5.6,29.03,ESE,116,7.6,7.6,24,0.00,,,0.00,VWS V14.01,2013-02-20 20:49:00,
2013-02-20 14:54:00,26.8,-6.0,29.03,ENE,71,5.8,5.8,23,0.00,,,0.00,VWS V14.01,2013-02-20 20:54:00,
2013-02-20 14:59:00,27.1,-5.7,29.03,ENE,64,6.3,6.3,23,0.00,,,0.00,VWS V14.01,2013-02-20 20:59:00,
2013-02-20 15:04:00,27.1,-5.7,29.03,East,91,5.8,8.1,23,0.00,,,0.00,VWS V14.01,2013-02-20 21:04:00,
2013-02-20 15:09:00,27.0,-5.9,29.03,East,85,4.0,4.0,23,0.00,,,0.00,VWS V14.01,2013-02-20 21:09:00,
2013-02-20 15:14:00,27.0,-5.9,29.03,ENE,73,7.6,7.6,23,0.00,,,0.00,VWS V14.01,2013-02-20 21:14:00,
2013-02-20 15:19:00,26.4,-5.5,29.03,ENE,71,8.7,8.7,24,0.00,,,0.00,VWS V14.01,2013-02-20 21:19:00,
2013-02-20 15:24:00,26.2,-5.6,29.03,ESE,105,4.0,4.0,24,0.00,,,0.00,VWS V14.01,2013-02-20 21:24:00,
2013-02-20 15:29:00,26.2,-5.6,29.03,East,83,9.2,9.2,24,0.00,,,0.00,VWS V14.01,2013-02-20 21:29:00,
2013-02-20 15:34:00,26.1,-5.8,29.03,ENE,60,10.1,10.1,24,0.00,,,0.00,VWS V14.01,2013-02-20 21:34:00,
2013-02-20 15:39:00,26.2,-5.6,29.03,East,100,10.1,10.1,24,0.00,,,0.00,VWS V14.01,2013-02-20 21:39:00,
2013-02-20 15:44:00,26.2,-5.6,29.03,ESE,105,10.1,10.1,24,0.00,,,0.00,VWS V14.01,2013-02-20 21:44:00,
2013-02-20 15:49:00,26.2,-5.6,29.03,East,101,6.3,6.3,24,0.00,,,0.00,VWS V14.01,2013-02-20 21:49:00,
2013-02-20 15:54:00,26.2,-5.6,29.03,ENE,61,8.1,8.1,24,0.00,,,0.00,VWS V14.01,2013-02-20 21:54:00,
2013-02-20 15:59:00,26.2,-5.6,29.03,East,80,8.1,8.1,24,0.00,,,0.00,VWS V14.01,2013-02-20 21:59:00,
2013-02-20 16:04:00,26.2,-5.6,29.03,ESE,102,4.9,7.6,24,0.00,,,0.00,VWS V14.01,2013-02-20 22:04:00,
2013-02-20 16:09:00,26.1,-5.8,29.03,East,85,7.6,7.6,24,0.00,,,0.00,VWS V14.01,2013-02-20 22:09:00,
2013-02-20 16:14:00,26.1,-5.8,29.03,ESE,103,8.3,10.1,24,0.00,,,0.00,VWS V14.01,2013-02-20 22:14:00,
2013-02-20 16:19:00,25.9,-5.9,29.03,ENE,76,10.1,10.1,24,0.00,,,0.00,VWS V14.01,2013-02-20 22:19:00,
2013-02-20 16:24:00,25.9,-5.9,29.03,East,88,8.1,8.1,24,0.00,,,0.00,VWS V14.01,2013-02-20 22:24:00,
2013-02-20 16:29:00,25.7,-6.1,29.03,ENE,75,5.8,5.8,24,0.00,,,0.00,VWS V14.01,2013-02-20 22:29:00,
2013-02-20 16:34:00,25.7,-6.1,29.03,East,101,6.3,6.3,24,0.00,,,0.00,VWS V14.01,2013-02-20 22:34:00,
2013-02-20 16:39:00,25.7,-6.1,29.00,East,95,8.7,8.7,24,0.00,,,0.00,VWS V14.01,2013-02-20 22:39:00,
2013-02-20 16:44:00,25.9,-5.9,29.00,ENE,73,8.1,8.1,24,0.00,,,0.00,VWS V14.01,2013-02-20 22:44:00,
2013-02-20 16:49:00,26.1,-5.8,29.00,ESE,106,10.1,10.1,24,0.00,,,0.00,VWS V14.01,2013-02-20 22:49:00,
2013-02-20 16:54:00,26.1,-5.8,29.00,ENE,73,5.4,10.1,24,0.00,,,0.00,VWS V14.01,2013-02-20 22:54:00,
2013-02-20 16:59:00,26.1,-5.8,29.00,ENE,76,10.1,10.1,24,0.00,,,0.00,VWS V14.01,2013-02-20 22:59:00,
2013-02-20 17:04:00,26.1,-5.8,29.00,ENE,58,5.8,5.8,24,0.00,,,0.00,VWS V14.01,2013-02-20 23:04:00,
2013-02-20 17:09:00,26.2,-5.6,29.00,ENE,62,8.3,8.3,24,0.00,,,0.00,VWS V14.01,2013-02-20 23:09:00,
2013-02-20 17:14:00,26.1,-5.8,29.00,ESE,107,10.5,10.5,24,0.00,,,0.00,VWS V14.01,2013-02-20 23:14:00,
2013-02-20 17:19:00,26.1,-5.8,29.00,ENE,77,3.1,3.1,24,0.00,,,0.00,VWS V14.01,2013-02-20 23:19:00,
2013-02-20 17:24:00,26.1,-5.8,29.00,ENE,75,7.6,8.3,24,0.00,,,0.00,VWS V14.01,2013-02-20 23:24:00,
2013-02-20 17:29:00,25.9,-5.9,29.00,ENE,62,8.3,8.3,24,0.00,,,0.00,VWS V14.01,2013-02-20 23:29:00,
2013-02-20 17:34:00,25.9,-5.9,29.00,ENE,75,6.3,6.3,24,0.00,,,0.00,VWS V14.01,2013-02-20 23:34:00,
2013-02-20 17:39:00,25.7,-6.1,29.00,East,89,7.6,8.7,24,0.00,,,0.00,VWS V14.01,2013-02-20 23:39:00,
2013-02-20 17:44:00,25.7,-6.1,29.00,East,89,7.6,7.6,24,0.00,,,0.00,VWS V14.01,2013-02-20 23:44:00,
2013-02-20 17:49:00,25.7,-6.1,29.00,ENE,72,7.6,7.6,24,0.00,,,0.00,VWS V14.01,2013-02-20 23:49:00,
2013-02-20 17:54:00,25.3,-9.1,29.00,ENE,66,6.3,6.3,21,0.00,,,0.00,VWS V14.01,2013-02-20 23:54:00,
2013-02-20 17:59:00,25.3,-9.1,29.00,East,92,4.0,6.3,21,0.00,,,0.00,VWS V14.01,2013-02-20 23:59:00,
2013-02-20 18:04:00,25.2,-6.6,29.00,East,83,8.1,9.6,24,0.00,,,0.00,VWS V14.01,2013-02-21 00:04:00,
2013-02-20 18:09:00,25.2,-6.6,29.00,East,90,4.0,4.0,24,0.00,,,0.00,VWS V14.01,2013-02-21 00:09:00,
2013-02-20 18:14:00,25.2,-6.6,29.00,East,81,5.4,5.4,24,0.00,,,0.00,VWS V14.01,2013-02-21 00:14:00,
2013-02-20 18:19:00,24.8,-6.9,29.00,East,101,6.3,6.3,24,0.00,,,0.00,VWS V14.01,2013-02-21 00:19:00,
2013-02-20 18:24:00,24.8,-6.9,29.00,East,87,6.3,8.1,24,0.00,,,0.00,VWS V14.01,2013-02-21 00:24:00,
2013-02-20 18:29:00,24.8,-6.9,29.00,ENE,60,7.2,8.1,24,0.00,,,0.00,VWS V14.01,2013-02-21 00:29:00,
2013-02-20 18:34:00,24.8,-6.9,29.00,East,97,8.7,8.7,24,0.00,,,0.00,VWS V14.01,2013-02-21 00:34:00,
2013-02-20 18:39:00,24.8,-6.9,29.00,East,99,5.8,5.8,24,0.00,,,0.00,VWS V14.01,2013-02-21 00:39:00,
2013-02-20 18:44:00,24.8,-6.9,29.00,ESE,108,8.7,8.7,24,0.00,,,0.00,VWS V14.01,2013-02-21 00:44:00,
2013-02-20 18:49:00,24.8,-6.9,29.00,East,101,8.3,8.3,24,0.00,,,0.00,VWS V14.01,2013-02-21 00:49:00,
2013-02-20 18:54:00,25.0,-6.7,29.00,East,101,8.3,8.3,24,0.00,,,0.00,VWS V14.01,2013-02-21 00:54:00,
2013-02-20 18:59:00,25.0,-6.7,29.00,East,89,8.1,8.1,24,0.00,,,0.00,VWS V14.01,2013-02-21 00:59:00,
2013-02-20 19:04:00,24.8,-6.9,29.00,East,91,7.2,7.2,24,0.00,,,0.00,VWS V14.01,2013-02-21 01:04:00,
2013-02-20 19:09:00,24.8,-6.9,28.97,East,98,3.1,7.6,24,0.00,,,0.00,VWS V14.01,2013-02-21 01:09:00,
2013-02-20 19:14:00,24.8,-6.9,28.97,East,101,8.1,8.1,24,0.00,,,0.00,VWS V14.01,2013-02-21 01:14:00,
2013-02-20 19:19:00,24.8,-6.9,28.97,ENE,72,3.6,3.6,24,0.00,,,0.00,VWS V14.01,2013-02-21 01:19:00,
2013-02-20 19:24:00,24.8,-6.9,29.00,ENE,77,7.6,8.3,24,0.00,,,0.00,VWS V14.01,2013-02-21 01:24:00,
2013-02-20 19:29:00,24.8,-6.9,29.00,East,85,7.6,7.6,24,0.00,,,0.00,VWS V14.01,2013-02-21 01:29:00,
2013-02-20 19:34:00,24.8,-6.9,29.00,ENE,70,7.6,7.6,24,0.00,,,0.00,VWS V14.01,2013-02-21 01:34:00,
2013-02-20 19:39:00,24.8,-6.9,28.97,East,96,6.3,6.3,24,0.00,,,0.00,VWS V14.01,2013-02-21 01:39:00,
2013-02-20 19:44:00,24.8,-6.9,28.97,ENE,61,7.2,7.2,24,0.00,,,0.00,VWS V14.01,2013-02-21 01:44:00,
2013-02-20 19:49:00,24.8,-6.9,28.97,ENE,60,10.1,10.1,24,0.00,,,0.00,VWS V14.01,2013-02-21 01:49:00,
2013-02-20 19:54:00,24.8,-6.9,28.97,ENE,70,7.6,7.6,24,0.00,,,0.00,VWS V14.01,2013-02-21 01:54:00,
2013-02-20 19:59:00,24.8,-6.9,28.97,ENE,58,12.8,12.8,24,0.00,,,0.00,VWS V14.01,2013-02-21 01:59:00,
2013-02-20 20:04:00,24.6,-7.0,28.97,East,96,7.6,7.6,24,0.00,,,0.00,VWS V14.01,2013-02-21 02:04:00,
2013-02-20 20:09:00,24.6,-7.0,28.97,East,92,8.1,8.1,24,0.00,,,0.00,VWS V14.01,2013-02-21 02:09:00,
2013-02-20 20:14:00,24.6,-7.0,28.97,ENE,73,8.7,10.1,24,0.00,,,0.00,VWS V14.01,2013-02-21 02:14:00,
2013-02-20 20:19:00,24.6,-7.0,28.97,ENE,62,8.1,8.1,24,0.00,,,0.00,VWS V14.01,2013-02-21 02:19:00,
2013-02-20 20:24:00,24.6,-7.0,28.97,ENE,77,9.6,9.6,24,0.00,,,0.00,VWS V14.01,2013-02-21 02:24:00,
2013-02-20 20:29:00,24.6,-8.8,28.97,ENE,72,10.5,10.5,22,0.00,,,0.00,VWS V14.01,2013-02-21 02:29:00,
2013-02-20 20:34:00,24.6,-8.8,28.97,East,82,10.5,10.5,22,0.00,,,0.00,VWS V14.01,2013-02-21 02:34:00,
2013-02-20 20:39:00,24.4,-8.9,28.97,East,90,6.3,6.3,22,0.00,,,0.00,VWS V14.01,2013-02-21 02:39:00,
2013-02-20 20:44:00,24.4,-7.2,28.97,East,91,6.3,6.3,24,0.00,,,0.00,VWS V14.01,2013-02-21 02:44:00,
2013-02-20 20:49:00,24.4,-7.2,28.97,East,79,7.6,8.1,24,0.00,,,0.00,VWS V14.01,2013-02-21 02:49:00,
2013-02-20 20:54:00,24.4,-7.2,28.97,East,79,7.6,7.6,24,0.00,,,0.00,VWS V14.01,2013-02-21 02:54:00,
2013-02-20 20:59:00,24.4,-7.2,29.00,East,88,10.1,10.1,24,0.00,,,0.00,VWS V14.01,2013-02-21 02:59:00,
2013-02-20 21:04:00,24.4,-7.2,29.00,ENE,71,8.3,8.3,24,0.00,,,0.00,VWS V14.01,2013-02-21 03:04:00,
2013-02-20 21:09:00,24.4,-8.9,29.00,ENE,75,8.1,8.1,22,0.00,,,0.00,VWS V14.01,2013-02-21 03:09:00,
2013-02-20 21:14:00,24.4,-8.9,29.00,ENE,73,6.3,6.3,22,0.00,,,0.00,VWS V14.01,2013-02-21 03:14:00,
2013-02-20 21:19:00,24.4,-8.9,29.00,ENE,65,7.2,7.2,22,0.00,,,0.00,VWS V14.01,2013-02-21 03:19:00,
2013-02-20 21:24:00,24.4,-8.9,28.97,ENE,72,8.1,8.1,22,0.00,,,0.00,VWS V14.01,2013-02-21 03:24:00,
2013-02-20 21:29:00,24.4,-8.9,28.97,East,84,8.3,8.3,22,0.00,,,0.00,VWS V14.01,2013-02-21 03:29:00,
2013-02-20 21:34:00,24.3,-9.1,28.97,ENE,77,8.1,8.1,22,0.00,,,0.00,VWS V14.01,2013-02-21 03:34:00,
2013-02-20 21:39:00,24.3,-9.1,28.97,ENE,71,5.8,10.5,22,0.00,,,0.00,VWS V14.01,2013-02-21 03:39:00,
2013-02-20 21:44:00,24.3,-9.1,29.00,ENE,62,4.0,4.0,22,0.00,,,0.00,VWS V14.01,2013-02-21 03:44:00,
2013-02-20 21:49:00,24.1,-9.2,29.00,ENE,62,4.0,4.0,22,0.00,,,0.00,VWS V14.01,2013-02-21 03:49:00,
2013-02-20 21:54:00,24.1,-9.2,29.00,East,92,8.7,8.7,22,0.00,,,0.00,VWS V14.01,2013-02-21 03:54:00,
2013-02-20 21:59:00,24.1,-9.2,29.00,ESE,109,11.9,11.9,22,0.00,,,0.00,VWS V14.01,2013-02-21 03:59:00,
2013-02-20 22:04:00,24.1,-9.2,29.00,East,96,11.0,11.0,22,0.00,,,0.00,VWS V14.01,2013-02-21 04:04:00,
2013-02-20 22:09:00,24.1,-9.2,29.00,East,91,10.1,10.1,22,0.00,,,0.00,VWS V14.01,2013-02-21 04:09:00,
2013-02-20 22:14:00,23.9,-9.4,29.00,ENE,68,10.1,10.1,22,0.00,,,0.00,VWS V14.01,2013-02-21 04:14:00,
2013-02-20 22:19:00,23.9,-9.4,29.00,East,93,5.8,5.8,22,0.00,,,0.00,VWS V14.01,2013-02-21 04:19:00,
2013-02-20 22:24:00,23.9,-9.4,29.00,East,86,5.8,12.3,22,0.00,,,0.00,VWS V14.01,2013-02-21 04:24:00,
2013-02-20 22:29:00,23.9,-9.4,29.00,East,86,5.8,5.8,22,0.00,,,0.00,VWS V14.01,2013-02-21 04:29:00,
2013-02-20 22:34:00,23.9,-9.4,29.00,East,86,8.3,8.3,22,0.00,,,0.00,VWS V14.01,2013-02-21 04:34:00,
2013-02-20 22:39:00,23.7,-9.6,29.00,East,86,8.3,8.3,22,0.00,,,0.00,VWS V14.01,2013-02-21 04:39:00,
2013-02-20 22:44:00,23.7,-9.6,29.00,ENE,74,8.3,8.3,22,0.00,,,0.00,VWS V14.01,2013-02-21 04:44:00,
2013-02-20 22:49:00,23.7,-9.6,29.00,ENE,63,8.1,8.1,22,0.00,,,0.00,VWS V14.01,2013-02-21 04:49:00,
2013-02-20 22:54:00,23.7,-9.6,29.00,ENE,75,6.3,6.3,22,0.00,,,0.00,VWS V14.01,2013-02-21 04:54:00,
2013-02-20 22:59:00,23.7,-9.6,29.00,ENE,63,6.3,6.3,22,0.00,,,0.00,VWS V14.01,2013-02-21 04:59:00,
2013-02-20 23:00:00,23.7,-9.6,29.00,ENE,63,6.3,6.3,22,0.00,,,0.00,VWS V14.01,2013-02-21 05:00:00,
2013-02-20 23:05:00,23.7,-9.6,29.00,ENE,60,5.8,5.8,22,0.00,,,0.00,VWS V14.01,2013-02-21 05:05:00,
2013-02-20 23:10:00,23.7,-9.6,29.00,East,95,8.7,8.7,22,0.00,,,0.00,VWS V14.01,2013-02-21 05:10:00,
2013-02-20 23:15:00,23.5,-9.7,29.00,East,82,9.2,9.2,22,0.00,,,0.00,VWS V14.01,2013-02-21 05:15:00,
2013-02-20 23:20:00,23.5,-9.7,29.00,ESE,104,12.8,12.8,22,0.00,,,0.00,VWS V14.01,2013-02-21 05:20:00,
2013-02-20 23:25:00,23.4,-9.9,29.00,ENE,76,12.3,12.3,22,0.00,,,0.00,VWS V14.01,2013-02-21 05:25:00,
2013-02-20 23:30:00,23.2,-10.0,29.00,ENE,76,12.3,12.3,22,0.00,,,0.00,VWS V14.01,2013-02-21 05:30:00,
2013-02-20 23:35:00,23.2,-10.0,29.00,ENE,76,12.3,12.3,22,0.00,,,0.00,VWS V14.01,2013-02-21 05:35:00,
2013-02-20 23:40:00,23.2,-10.0,29.00,ENE,69,6.3,6.3,22,0.00,,,0.00,VWS V14.01,2013-02-21 05:40:00,
2013-02-20 23:45:00,23.2,-10.0,29.00,ENE,57,8.3,8.3,22,0.00,,,0.00,VWS V14.01,2013-02-21 05:45:00,
2013-02-20 23:50:00,23.0,-10.2,29.00,NE,56,8.1,8.3,22,0.00,,,0.00,VWS V14.01,2013-02-21 05:50:00,
2013-02-20 23:55:00,23.0,-10.2,29.00,East,83,8.3,8.3,22,0.00,,,0.00,VWS V14.01,2013-02-21 05:55:00,